DLH4022 EDDL-EDDH

Flight info

Callsign DLH4022
Flight time 0h 38m
Altitude 31000
Route MEVEL4H MEVEL Y850 BASUM/N0499F300 Y850 PIXUR/N0503F290 Y850 MUBZI M105 RIBSO RIBSO3S
Aircraft A35K/H-SDE2E3GHIJ3J4J5LM1ORWXY/LB1D1

Departure

Time 2026-05-04 19:32
Airport Düsseldorf Airport (EDDL)

Arrival

Time 2026-05-04 20:10
Airport Hamburg Helmut Schmidt Airport (EDDH)
Time Latitude Longitude Altitude Speed Heading
2026-05-04 18:42 51.27756 6.76147 134 ft 0 kts 158°
2026-05-04 19:10 51.27762 6.76143 134 ft 2 kts 151°
2026-05-04 19:10 51.27775 6.76126 129 ft 3 kts 106°
2026-05-04 19:10 51.27775 6.76099 134 ft 3 kts 64°
2026-05-04 19:11 51.27765 6.76072 131 ft 3 kts 47°
2026-05-04 19:11 51.27750 6.76051 134 ft 3 kts 28°
2026-05-04 19:11 51.27737 6.76042 135 ft 1 kts
2026-05-04 19:11 51.27735 6.76042 135 ft 0 kts
2026-05-04 19:13 51.27736 6.76042 135 ft 0 kts
2026-05-04 19:15 51.27745 6.76042 134 ft 3 kts
2026-05-04 19:15 51.27791 6.76044 133 ft 10 kts
2026-05-04 19:15 51.27868 6.76048 125 ft 11 kts
2026-05-04 19:16 51.27947 6.76050 134 ft 12 kts 359°
2026-05-04 19:16 51.28024 6.76049 135 ft 10 kts
2026-05-04 19:16 51.28029 6.76049 135 ft 0 kts
2026-05-04 19:18 51.28031 6.76049 135 ft 2 kts
2026-05-04 19:18 51.28060 6.76049 135 ft 7 kts
2026-05-04 19:18 51.28124 6.76053 133 ft 12 kts 10°
2026-05-04 19:18 51.28193 6.76156 127 ft 16 kts 52°
2026-05-04 19:19 51.28268 6.76309 126 ft 20 kts 52°
2026-05-04 19:19 51.28362 6.76503 122 ft 23 kts 53°
2026-05-04 19:19 51.28464 6.76718 129 ft 25 kts 52°
2026-05-04 19:19 51.28570 6.76941 137 ft 26 kts 53°
2026-05-04 19:20 51.28682 6.77180 138 ft 28 kts 53°
2026-05-04 19:20 51.28807 6.77443 136 ft 28 kts 53°
2026-05-04 19:20 51.28916 6.77673 137 ft 24 kts 52°
2026-05-04 19:20 51.29024 6.77900 140 ft 26 kts 52°
2026-05-04 19:21 51.29099 6.78056 139 ft 5 kts 52°
2026-05-04 19:21 51.29106 6.78071 139 ft 0 kts 52°
2026-05-04 19:22 51.29109 6.78077 140 ft 2 kts 52°
2026-05-04 19:22 51.29124 6.78114 140 ft 5 kts 65°
2026-05-04 19:23 51.29125 6.78182 140 ft 8 kts 92°
2026-05-04 19:23 51.29129 6.78282 141 ft 10 kts 74°
2026-05-04 19:23 51.29182 6.78380 140 ft 14 kts 39°
2026-05-04 19:23 51.29272 6.78485 140 ft 17 kts 36°
2026-05-04 19:24 51.29348 6.78560 139 ft 8 kts 21°
2026-05-04 19:24 51.29361 6.78566 139 ft 0 kts 13°
2026-05-04 19:28 51.29372 6.78569 139 ft 6 kts 10°
2026-05-04 19:28 51.29458 6.78568 139 ft 16 kts 358°
2026-05-04 19:28 51.29519 6.78482 140 ft 13 kts 263°
2026-05-04 19:28 51.29488 6.78401 138 ft 1 kts 232°
2026-05-04 19:29 51.29481 6.78387 138 ft 0 kts 232°
2026-05-04 19:31 51.29475 6.78374 138 ft 3 kts 232°
2026-05-04 19:31 51.29345 6.78102 139 ft 68 kts 232°
2026-05-04 19:31 51.28897 6.77166 134 ft 141 kts 232°
2026-05-04 19:31 51.28254 6.75790 728 ft 153 kts 234°
2026-05-04 19:32 51.27663 6.74353 1545 ft 156 kts 239°
2026-05-04 19:32 51.27457 6.72621 2231 ft 175 kts 276°
2026-05-04 19:32 51.27937 6.70730 2817 ft 191 kts 298°
2026-05-04 19:32 51.28849 6.69181 3571 ft 201 kts 324°
2026-05-04 19:33 51.30220 6.68512 4160 ft 219 kts 356°
2026-05-04 19:33 51.31826 6.68615 4586 ft 243 kts
2026-05-04 19:33 51.33604 6.68887 4906 ft 268 kts
2026-05-04 19:33 51.35493 6.69151 4985 ft 274 kts
2026-05-04 19:34 51.37397 6.69387 4988 ft 275 kts
2026-05-04 19:34 51.39305 6.69604 4991 ft 275 kts
2026-05-04 19:34 51.41215 6.69673 4989 ft 274 kts 359°
2026-05-04 19:34 51.43126 6.69645 5204 ft 276 kts 359°
2026-05-04 19:35 51.45057 6.69622 6004 ft 278 kts 360°
2026-05-04 19:35 51.46966 6.69610 7093 ft 278 kts
2026-05-04 19:35 51.48907 6.69606 8169 ft 280 kts
2026-05-04 19:35 51.50863 6.69607 9304 ft 282 kts
2026-05-04 19:36 51.52841 6.69610 10325 ft 288 kts
2026-05-04 19:36 51.54923 6.69616 10835 ft 313 kts
2026-05-04 19:36 51.57190 6.69623 11236 ft 339 kts
2026-05-04 19:36 51.59618 6.69852 11708 ft 359 kts 10°
2026-05-04 19:37 51.61990 6.71198 12506 ft 366 kts 31°
2026-05-04 19:37 51.63932 6.73820 13560 ft 367 kts 49°
2026-05-04 19:37 51.65518 6.77071 14427 ft 373 kts 54°
2026-05-04 19:37 51.67074 6.80498 15016 ft 386 kts 55°
2026-05-04 19:38 51.68655 6.83992 15655 ft 395 kts 55°
2026-05-04 19:38 51.70290 6.87582 16523 ft 399 kts 55°
2026-05-04 19:38 51.71949 6.91210 17346 ft 405 kts 55°
2026-05-04 19:38 51.73633 6.94897 18173 ft 411 kts 55°
2026-05-04 19:39 51.75338 6.98633 18901 ft 417 kts 55°
2026-05-04 19:39 51.77068 7.02430 19671 ft 422 kts 55°
2026-05-04 19:39 51.78824 7.06284 20441 ft 428 kts 55°
2026-05-04 19:39 51.80597 7.10180 21189 ft 434 kts 54°
2026-05-04 19:40 51.82396 7.14138 21952 ft 439 kts 54°
2026-05-04 19:40 51.84213 7.18139 22677 ft 446 kts 54°
2026-05-04 19:40 51.86176 7.22085 23411 ft 453 kts 50°
2026-05-04 19:40 51.88291 7.25886 23822 ft 456 kts 47°
2026-05-04 19:41 51.90489 7.29636 23953 ft 467 kts 46°
2026-05-04 19:41 51.92771 7.33445 23952 ft 483 kts 46°
2026-05-04 19:41 51.95134 7.37370 23964 ft 489 kts 46°
2026-05-04 19:41 51.97504 7.41324 23961 ft 490 kts 46°
2026-05-04 19:42 51.99872 7.45302 23959 ft 490 kts 46°
2026-05-04 19:42 52.02233 7.49296 23965 ft 490 kts 46°
2026-05-04 19:42 52.04594 7.53291 23975 ft 490 kts 45°
2026-05-04 19:42 52.07173 7.56915 23967 ft 491 kts 36°
2026-05-04 19:43 52.10013 7.59981 23964 ft 491 kts 31°
2026-05-04 19:43 52.12929 7.62892 23972 ft 491 kts 31°
2026-05-04 19:43 52.15857 7.65767 23957 ft 491 kts 31°
2026-05-04 19:43 52.18744 7.68590 23969 ft 491 kts 30°
2026-05-04 19:44 52.21682 7.71460 23974 ft 491 kts 30°
2026-05-04 19:44 52.24614 7.74325 23957 ft 491 kts 30°
2026-05-04 19:44 52.27549 7.77194 23965 ft 491 kts 31°
2026-05-04 19:44 52.30469 7.80053 23964 ft 490 kts 31°
2026-05-04 19:45 52.33393 7.82920 23966 ft 490 kts 31°
2026-05-04 19:45 52.36317 7.85791 23965 ft 490 kts 31°
2026-05-04 19:45 52.39233 7.88659 23966 ft 490 kts 31°
2026-05-04 19:45 52.42153 7.91534 23971 ft 490 kts 31°
2026-05-04 19:46 52.45036 7.94378 23971 ft 490 kts 31°
2026-05-04 19:46 52.47989 7.97295 23971 ft 490 kts 31°
2026-05-04 19:46 52.50870 8.00145 23978 ft 490 kts 30°
2026-05-04 19:46 52.53792 8.03041 23977 ft 490 kts 31°
2026-05-04 19:47 52.56709 8.05936 23977 ft 491 kts 31°
2026-05-04 19:47 52.59634 8.08844 23976 ft 491 kts 31°
2026-05-04 19:47 52.62552 8.11750 23958 ft 491 kts 31°
2026-05-04 19:47 52.65463 8.14652 23491 ft 488 kts 31°
2026-05-04 19:48 52.68349 8.17534 22977 ft 480 kts 31°
2026-05-04 19:48 52.71175 8.20362 22422 ft 472 kts 31°
2026-05-04 19:48 52.73928 8.23123 21865 ft 466 kts 30°
2026-05-04 19:48 52.76676 8.25882 21307 ft 460 kts 30°
2026-05-04 19:49 52.79403 8.28623 21031 ft 457 kts 30°
2026-05-04 19:49 52.82115 8.31351 20975 ft 457 kts 30°
2026-05-04 19:49 52.84833 8.34090 20972 ft 457 kts 30°
2026-05-04 19:49 52.87546 8.36829 20994 ft 456 kts 30°
2026-05-04 19:50 52.90252 8.39563 20994 ft 456 kts 30°
2026-05-04 19:50 52.92962 8.42306 20974 ft 456 kts 30°
2026-05-04 19:50 52.95670 8.45052 21006 ft 456 kts 30°
2026-05-04 19:50 52.98373 8.47797 20989 ft 457 kts 30°
2026-05-04 19:51 53.01079 8.50548 20991 ft 457 kts 30°
2026-05-04 19:51 53.03793 8.53311 20989 ft 457 kts 30°
2026-05-04 19:51 53.06503 8.56075 20989 ft 457 kts 30°
2026-05-04 19:51 53.09211 8.58842 20989 ft 457 kts 30°
2026-05-04 19:52 53.11761 8.61892 20991 ft 459 kts 40°
2026-05-04 19:52 53.13944 8.65765 21008 ft 459 kts 52°
2026-05-04 19:52 53.15795 8.70113 20985 ft 460 kts 57°
2026-05-04 19:52 53.17463 8.74656 21002 ft 460 kts 60°
2026-05-04 19:53 53.19030 8.79271 20794 ft 457 kts 61°
2026-05-04 19:53 53.20559 8.83921 20537 ft 458 kts 61°
2026-05-04 19:53 53.22085 8.88579 20275 ft 456 kts 61°
2026-05-04 19:53 53.23616 8.93212 20040 ft 454 kts 60°
2026-05-04 19:54 53.25129 8.97745 19801 ft 452 kts 60°
2026-05-04 19:54 53.26653 9.02279 19349 ft 444 kts 60°
2026-05-04 19:54 53.28164 9.06754 18769 ft 440 kts 59°
2026-05-04 19:54 53.29659 9.11176 18158 ft 436 kts 59°
2026-05-04 19:55 53.31147 9.15575 17521 ft 432 kts 59°
2026-05-04 19:55 53.32616 9.19927 16920 ft 427 kts 59°
2026-05-04 19:55 53.34064 9.24224 16314 ft 422 kts 60°
2026-05-04 19:55 53.35497 9.28486 15719 ft 417 kts 60°
2026-05-04 19:56 53.36912 9.32704 15132 ft 413 kts 60°
2026-05-04 19:56 53.38307 9.36874 14542 ft 409 kts 60°
2026-05-04 19:56 53.39693 9.41031 13941 ft 406 kts 60°
2026-05-04 19:56 53.41061 9.45137 13307 ft 403 kts 60°
2026-05-04 19:57 53.42400 9.49161 12717 ft 398 kts 60°
2026-05-04 19:57 53.43737 9.53188 12123 ft 393 kts 60°
2026-05-04 19:57 53.45063 9.57184 11562 ft 389 kts 60°
2026-05-04 19:57 53.46351 9.61074 11363 ft 374 kts 61°
2026-05-04 19:58 53.47587 9.64815 11260 ft 358 kts 61°
2026-05-04 19:58 53.48768 9.68395 11149 ft 343 kts 61°
2026-05-04 19:58 53.49898 9.71824 11016 ft 330 kts 61°
2026-05-04 19:58 53.50986 9.75133 10870 ft 318 kts 61°
2026-05-04 19:59 53.52035 9.78325 10737 ft 307 kts 61°
2026-05-04 19:59 53.53035 9.81372 10574 ft 297 kts 61°
2026-05-04 19:59 53.54029 9.84401 10233 ft 296 kts 61°
2026-05-04 19:59 53.55018 9.87419 9910 ft 293 kts 61°
2026-05-04 20:00 53.56017 9.90473 9564 ft 302 kts 61°
2026-05-04 20:00 53.57033 9.93577 9245 ft 303 kts 61°
2026-05-04 20:00 53.58044 9.96667 8923 ft 301 kts 61°
2026-05-04 20:00 53.59048 9.99759 8621 ft 301 kts 61°
2026-05-04 20:01 53.60045 10.02851 8319 ft 300 kts 61°
2026-05-04 20:01 53.61034 10.05921 8022 ft 298 kts 61°
2026-05-04 20:01 53.62020 10.08984 7713 ft 297 kts 61°
2026-05-04 20:01 53.63000 10.12029 7414 ft 295 kts 61°
2026-05-04 20:02 53.63959 10.15014 7123 ft 293 kts 61°
2026-05-04 20:02 53.64930 10.18035 6813 ft 292 kts 61°
2026-05-04 20:02 53.65889 10.21022 6529 ft 288 kts 61°
2026-05-04 20:02 53.66836 10.23964 6234 ft 283 kts 61°
2026-05-04 20:03 53.67759 10.26836 5928 ft 278 kts 61°
2026-05-04 20:03 53.68674 10.29678 5647 ft 273 kts 61°
2026-05-04 20:03 53.69569 10.32462 5380 ft 266 kts 61°
2026-05-04 20:03 53.70442 10.35135 5126 ft 254 kts 59°
2026-05-04 20:04 53.71611 10.37230 4909 ft 239 kts 29°
2026-05-04 20:04 53.73103 10.37987 4687 ft 221 kts 357°
2026-05-04 20:04 53.74508 10.37319 4464 ft 205 kts 323°
2026-05-04 20:04 53.75365 10.35546 4225 ft 191 kts 288°
2026-05-04 20:05 53.75521 10.33378 3971 ft 184 kts 267°
2026-05-04 20:05 53.75439 10.31246 3721 ft 180 kts 264°
2026-05-04 20:05 53.75327 10.29171 3471 ft 173 kts 264°
2026-05-04 20:05 53.75212 10.27190 3238 ft 167 kts 264°
2026-05-04 20:06 53.75091 10.25247 3023 ft 166 kts 264°
2026-05-04 20:06 53.74835 10.23337 2981 ft 170 kts 246°
2026-05-04 20:06 53.74209 10.21645 2980 ft 170 kts 234°
2026-05-04 20:06 53.73481 10.20098 2981 ft 170 kts 232°
2026-05-04 20:07 53.72733 10.18552 2988 ft 170 kts 232°
2026-05-04 20:07 53.71965 10.17019 2979 ft 173 kts 231°
2026-05-04 20:07 53.71185 10.15436 2840 ft 177 kts 232°
2026-05-04 20:07 53.70419 10.13854 2674 ft 171 kts 232°
2026-05-04 20:08 53.69676 10.12313 2451 ft 169 kts 232°
2026-05-04 20:08 53.68929 10.10785 2157 ft 169 kts 232°
2026-05-04 20:08 53.68180 10.09268 1839 ft 166 kts 231°
2026-05-04 20:08 53.67447 10.07790 1511 ft 162 kts 232°
2026-05-04 20:09 53.66736 10.06347 1237 ft 158 kts 233°
2026-05-04 20:09 53.66042 10.04956 959 ft 156 kts 233°
2026-05-04 20:09 53.65358 10.03562 668 ft 153 kts 233°
2026-05-04 20:09 53.64692 10.02203 413 ft 147 kts 233°
2026-05-04 20:10 53.64044 10.00877 222 ft 146 kts 232°
2026-05-04 20:10 53.63403 9.99572 63 ft 142 kts 232°
2026-05-04 20:10 53.62838 9.98415 44 ft 100 kts 230°
2026-05-04 20:10 53.62577 9.97892 45 ft 31 kts 230°
2026-05-04 20:11 53.62483 9.97812 45 ft 10 kts 136°
2026-05-04 20:11 53.62445 9.97882 46 ft 9 kts 139°
2026-05-04 20:11 53.62439 9.97969 43 ft 11 kts 84°
2026-05-04 20:11 53.62479 9.98122 45 ft 16 kts 50°
2026-05-04 20:12 53.62557 9.98280 44 ft 19 kts 50°
2026-05-04 20:12 53.62648 9.98464 42 ft 22 kts 50°
2026-05-04 20:12 53.62751 9.98674 45 ft 25 kts 50°
2026-05-04 20:12 53.62866 9.98906 43 ft 27 kts 50°
2026-05-04 20:13 53.62991 9.99159 46 ft 29 kts 50°
2026-05-04 20:13 53.63116 9.99438 45 ft 28 kts 54°
2026-05-04 20:13 53.63209 9.99648 47 ft 14 kts 52°
2026-05-04 20:13 53.63197 9.99786 50 ft 14 kts 148°
2026-05-04 20:14 53.63099 9.99871 45 ft 17 kts 154°
2026-05-04 20:14 53.62982 9.99965 47 ft 20 kts 154°
2026-05-04 20:14 53.62911 10.00054 46 ft 7 kts 98°
2026-05-04 20:14 53.62946 10.00101 47 ft 8 kts 27°
2026-05-04 20:15 53.63007 10.00156 48 ft 12 kts 29°
2026-05-04 20:15 53.63080 10.00220 47 ft 11 kts 28°
2026-05-04 20:15 53.63104 10.00320 48 ft 9 kts 86°
2026-05-04 20:15 53.63106 10.00370 48 ft 0 kts 86°